Home   Weather   Waterloo   Past weeks

Flag for Canada Past Weather in Waterloo, Ontario, Canada — Yesterday and Last 2 Weeks

Now
55 °F

Light rain. Mostly cloudy.


Feels Like: 55 °F
Forecast: 49 / 62 °F
Wind: 5 mph from Southeast

Location: Waterloo Well

Current Time: Sep 26, 2016 at 9:57:42 AM

Latest Report: Sep 26, 2016 at 9:00 AM


Visibility: 9 mi

Pressure: 29.91 "Hg

Humidity: 88%

Dew Point: 52 °F

Location of WaterlooLocation

Past Weather in Waterloo — Graph

°F

Waterloo Temperature Yesterday

Maximum temperature yesterday: 66 °F (at 2:58 PM)
Minimum temperature yesterday: 36 °F (at 7:00 AM)
Average temperature yesterday: 51 °F

High & Low Weather Summary for the Past Weeks

 TemperatureHumidityPressure
High82 °F (Sep 22, 2:00 PM)100% (Sep 12, 3:00 AM)30.37 "Hg (Sep 12, 3:00 AM)
Low36 °F (Sep 25, 7:00 AM)31% (Sep 20, 5:00 PM)29.87 "Hg (Sep 17, 5:00 PM)
Average61 °F77%30.13 "Hg
* Reported Sep 11 8:00 AM — Sep 26 8:00 AM, Waterloo, Weather by CustomWeather, © 2016

Note: Actual official high and low records may vary slightly from our data, if they occured in-between our weather recording intervals... More about our weather records

Advertising

Waterloo Weather History for the Previous 24 Hours

Scroll right to see more
 ConditionsComfort  
Time TempWeatherWind HumidityBarometerVisibility
8:00 AM
Mon, Sep 26
55 °FMostly cloudy.3 mph82%29.94 "Hg9 mi
7:00 AM54 °FMostly cloudy.7 mph82%29.95 "Hg9 mi
6:00 AM52 °FPassing clouds.8 mph82%29.96 "Hg9 mi
5:00 AM48 °FClear.7 mph87%29.98 "Hg9 mi
4:00 AM48 °FPassing clouds.5 mph87%30.00 "Hg9 mi
3:00 AM52 °FPartly cloudy.5 mph82%30.04 "Hg9 mi
2:00 AM54 °FMostly cloudy.8 mph77%30.06 "Hg9 mi
1:00 AM52 °FOvercast.7 mph82%30.08 "Hg9 mi
12:00 AM50 °FPassing clouds.7 mph76%30.10 "Hg9 mi
11:00 PM
Sun, Sep 25
46 °FClear.7 mph82%30.13 "Hg9 mi
10:00 PM46 °FClear.7 mph82%30.14 "Hg9 mi
9:00 PM48 °FClear.6 mph82%30.16 "Hg9 mi
8:00 PM52 °FClear.9 mph72%30.17 "Hg9 mi
7:00 PM55 °FSunny.7 mph63%30.17 "Hg9 mi
6:00 PM61 °FSunny.10 mph63%30.16 "Hg9 mi
5:00 PM64 °FSunny.9 mph56%30.17 "Hg1 mi
4:00 PM64 °FSunny.7 mph52%30.18 "Hg9 mi
3:00 PM66 °FSunny.3 mph49%30.21 "Hg4 mi
2:58 PM66 °FSunny.3 mph46%30.21 "Hg4 mi
2:00 PM64 °FSunny.6 mph52%30.23 "Hg9 mi
1:00 PM63 °FSunny.8 mph56%30.25 "Hg9 mi
12:00 PM61 °FPassing clouds.7 mph59%30.26 "Hg9 mi
11:00 AM59 °FSunny.8 mph68%30.27 "Hg9 mi
10:00 AM55 °FSunny.2 mph72%30.28 "Hg9 mi
9:00 AM48 °FSunny.2 mph87%30.28 "Hg9 mi
Weather by CustomWeather, © 2016

See weather overviewHow to use our weather pages